www.pogodaiklimat.ru

Погода и климат >> Архив погоды >> Испания >> La Coruna


АРХИВ ПОГОДЫ в La Coruna

Время (UTC), дата Ветер
(напр.,м/с)
 
Видим.   Явления Облачность Т
(С)
Тd
(С)
f
(%)
Тe
(С)
Тes
(С)
Комфортность P
(гПа)
Po
(гПа)
Тmin
(С)
Tmax
(С)
R
(мм)
R24
(мм)
S
(см)
10 12.07 СВ 2 20 км н/о +21.5 +17.1 76 +25 +25 комфорт 1018.4 1010.6
11 12.07 С 2 20 км н/о +21.7 +17.9 79 +26 +26 душно 1018.2 1010.4
12 12.07 З 4 18 км 4/3 300 м
[St Ci fib]
+22.1 +17.9 77 +27 +36 душно 1018.0 1010.2
13 12.07 СЗ 3 20 км н/о +22.2 +18.2 78 +27 +27 душно 1017.6 1009.8
14 12.07 СЗ 3 20 км н/о +20.5 +17.7 84 +24 +24 комфорт 1017.0 1009.2
15 12.07 С 7 20 км н/о +20.9 +17.9 83 +25 +25 комфорт 1016.5 1008.7
16 12.07 С 5 20 км н/о +20.4 +17.4 83 +24 +24 комфорт 1016.2 1008.4
17 12.07 С 4 18 км н/о +19.2 +17.0 87 +21 +21 комфорт 1016.0 1008.1
18 12.07 С 2 19 км н/о +19.7 +16.5 82 +23 +23 комфорт 1015.9 1008.1 +22.6
19 12.07 СВ 5 20 км н/о +22.0 +16.0 69 +26 +26 душно 1015.9 1008.1
20 12.07 СВ 4 20 км н/о +21.4 +16.1 72 +25 +25 комфорт 1016.0 1008.2
21 12.07 СВ 3 25 км 5/0
[Ci sp]
+21.2 +15.7 71 +24 +24 комфорт 1016.6 1008.8
22 12.07 СВ 3 20 км н/о +21.0 +16.0 73 +25 +25 комфорт 1016.9 1009.1
23 12.07 СВ 3 20 км н/о +20.3 +15.9 76 +24 +24 комфорт 1016.7 1008.9
00 13.07 СВ 3 22 км 1/0
[Ci fib]
+20.1 +16.1 78 +23 +23 комфорт 1016.5 1008.7
01 13.07 В 2 20 км н/о +19.7 +16.2 80 +22 +22 комфорт 1016.5 1008.6
02 13.07 СВ 2 20 км н/о +19.1 +16.0 82 +21 +21 комфорт 1016.2 1008.3
03 13.07 СЗ 1 22 км ясно +18.7 +15.8 83 +21 +21 комфорт 1016.3 1008.4
04 13.07 СЗ 1 20 км н/о +18.1 +15.5 85 +19 +19 тепло 1016.3 1008.4
05 13.07 С 3 18 км н/о +17.5 +15.5 88 +18 +18 тепло 1016.4 1008.5
06 13.07 СВ 1 25 км 4/1 600 м
[Cu hum Cs]
+18.0 +16.0 88 +19 +20 тепло 1016.2 1008.3 +17.3
07 13.07 СЗ 1 19 км н/о +19.4 +16.2 82 +22 +22 комфорт 1016.4 1008.5
08 13.07 СВ 2 20 км н/о +21.4 +16.8 75 +25 +25 комфорт 1016.5 1008.7
09 13.07 СВ 2 25 км 1/0
[Ci fib]
+22.9 +17.1 70 +28 +37 душно 1016.2 1008.4
10 13.07 С 2 20 км н/о +23.9 +17.2 66 +28 +28 душно 1016.2 1008.5
11 13.07 С 3 20 км н/о +24.1 +17.1 65 +28 +28 душно 1016.4 1008.7
12 13.07 С 3 25 км 1/1 600 м
[Cu hum Cc]
+22.9 +16.7 68 +28 +42 душно 1016.5 1008.7
13 13.07 С 3 20 км н/о +22.5 +17.0 71 +27 +27 душно 1016.3 1008.5
14 13.07 С 4 20 км н/о +22.2 +17.1 73 +27 +27 душно 1016.0 1008.2
15 13.07 С 3 20 км н/о +21.8 +17.0 74 +26 +26 душно 1015.7 1007.9
16 13.07 С 4 20 км н/о +21.9 +17.1 74 +26 +26 душно 1015.7 1007.9
17 13.07 С 2 20 км н/о +20.4 +16.6 79 +24 +24 комфорт 1015.9 1008.1
18 13.07 С 3 19 км н/о +19.5 +16.5 83 +22 +22 комфорт 1015.9 1008.0 +24.6
19 13.07 СВ 3 20 км н/о +22.2 +17.6 75 +27 +27 душно 1015.9 1008.1
20 13.07 СВ 3 20 км н/о +21.8 +17.4 76 +26 +26 душно 1016.3 1008.5
21 13.07 В 4 20 км 1/0
[Ac lent Ci fib]
+21.3 +17.3 78 +25 +25 комфорт 1016.9 1009.1
22 13.07 СВ 2 20 км н/о +20.9 +17.3 80 +26 +26 душно 1017.2 1009.4
23 13.07 В 2 20 км н/о +20.6 +17.2 81 +25 +25 комфорт 1017.2 1009.4
00 14.07 СВ 1 15 км ясно +20.5 +17.3 82 +25 +25 комфорт 1017.4 1009.6
01 14.07 С 1 18 км н/о +19.2 +16.8 86 +22 +22 комфорт 1017.4 1009.5
02 14.07 С 1 20 км н/о +19.1 +16.9 87 +22 +22 комфорт 1017.5 1009.6
03 14.07 ЮВ 1 15 км 1/0
[Ac lent]
+19.5 +17.1 86 +23 +23 комфорт 1017.3 1009.4
04 14.07 С 1 11 км н/о +18.6 +16.6 88 +21 +21 комфорт 1017.3 1009.4
05 14.07 СЗ 1 12 км н/о +17.8 +16.3 91 +19 +19 тепло 1017.2 1009.3
06 14.07 ЮВ 1 15 км 1/0
[Ac lent Ci fib]
+18.4 +16.9 91 +20 +21 тепло 1017.3 1009.4 +17.8
07 14.07 ЮВ 2 17 км н/о +19.7 +17.3 86 +23 +23 комфорт 1017.4 1009.5
08 14.07 СВ 2 16 км н/о +21.9 +17.7 77 +26 +26 душно 1017.4 1009.6
09 14.07 СВ 1 10 км 1/1 600 м
[Cu hum]
+22.5 +17.8 75 +28 +38 душно 1017.4 1009.6
10 14.07 СВ 2 19 км н/о +23.4 +17.8 71 +29 +29 душно 1017.2 1009.4
11 14.07 З 3 19 км н/о +23.5 +17.9 71 +28 +28 душно 1017.2 1009.4
12 14.07 З 4 10 км 1/0
[Ac lent Ci fib]
+23.7 +17.9 70 +28 +41 душно 1017.3 1009.6
13 14.07 З 3 20 км н/о +23.5 +18.4 73 +28 +28 душно 1017.4 1009.6
14 14.07 З 3 20 км н/о +23.8 +18.7 73 +28 +28 душно 1016.9 1009.2
15 14.07 З 7 18 км н/о +23.0 +18.5 76 +29 +29 очень
душно
1017.0 1009.2
16 14.07 З 4 10 км н/о +20.3 +18.2 88 +24 +24 комфорт 1017.8 1010.0
17 14.07 З 5 14 км н/о +20.5 +18.1 86 +24 +24 комфорт 1017.1 1009.3
18 14.07 З 2 15 км н/о +20.5 +18.1 86 +25 +25 комфорт 1017.5 1009.7 +24.3
19 14.07 З 2 11 км н/о +19.8 +18.1 90 +23 +23 комфорт 1018.1 1010.2
20 14.07 З 2 10 км н/о +19.3 +17.8 91 +22 +22 комфорт 1017.6 1009.7
21 14.07 З 4 10 км 6/3 50 м
[St Ac und Ci fib]
+18.6 +16.9 90 +20 +20 тепло 1017.8 1009.9
22 14.07 З 2 6000 м н/о +18.4 +17.2 93 +20 +20 тепло 1018.4 1010.5
23 14.07 ЮЗ 2 11 км н/о +18.7 +16.7 88 +20 +20 тепло 1018.5 1010.6
00 15.07 ЮВ 2 8000 м дымка 10/10 200 м
[St]
+19.5 +16.7 84 +22 +22 комфорт 1018.5 1010.6
01 15.07 Ю 2 19 км н/о +19.6 +16.2 81 +23 +23 комфорт 1017.9 1010.0
02 15.07 ЮЗ 1 16 км н/о +19.4 +16.2 82 +22 +22 комфорт 1017.4 1009.5
03 15.07 СВ 1 15 км 10/10 200 м
[St]
+19.0 +16.6 86 +22 +22 комфорт 1017.5 1009.6
04 15.07 СЗ 2 11 км н/о +18.4 +16.6 89 +20 +20 тепло 1017.2 1009.3
05 15.07 З 2 15 км н/о +18.2 +16.4 89 +19 +19 тепло 1017.6 1009.7 0.0
06 15.07 ЮЗ 3 5000 м в посл. час дождь {морось} 10/10 200 м
[Sc]
+18.3 +17.0 92 +19 +19 тепло 1017.7 1009.8 +18.1 2
07 15.07 ЮЗ 3 10 км н/о +18.6 +16.9 90 +20 +20 тепло 1017.8 1009.9
08 15.07 ЮЗ 3 12 км н/о +18.8 +16.6 87 +20 +20 тепло 1017.9 1010.0
09 15.07 ЮЗ 4 6000 м дымка 10/8 200 м
[Sc Ac As]
+19.0 +17.0 88 +21 +21 комфорт 1018.2 1010.3
10 15.07 З 4 19 км н/о +19.7 +17.5 87 +22 +22 комфорт 1018.3 1010.4
11 15.07 З 3 4800 м слаб. морось н/о +19.3 +17.6 90 +21 +21 комфорт 1018.6 1010.7 0.0
12 15.07 З 4 2500 м в посл. час морось 10/8 100 м
[Frnb Ac As]
+18.7 +17.0 90 +20 +20 по сезону 1018.8 1010.9 0.0
13 15.07 З 3 15 км в посл. час морось н/о +18.6 +16.9 90 +20 +20 по сезону 1018.9 1011.0 0.0
14 15.07 З 3 10 км слаб. морось н/о +18.9 +16.9 88 +21 +21 комфорт 1019.0 1011.1 0.4
15 15.07 З 4 17 км н/о +19.2 +16.6 85 +21 +21 комфорт 1019.0 1011.1 0.4
16 15.07 З 3 20 км н/о +19.4 +16.4 83 +22 +22 комфорт 1019.3 1011.4
17 15.07 З 2 20 км н/о +19.1 +15.2 78 +21 +21 комфорт 1019.5 1011.6
18 15.07 З 4 20 км н/о +18.6 +15.3 81 +19 +19 по сезону 1019.5 1011.6 +19.8
19 15.07 З 3 16 км н/о +18.4 +16.2 87 +19 +19 по сезону 1019.9 1012.0
20 15.07 ЮЗ 2 10 км н/о +18.2 +16.9 92 +19 +19 по сезону 1020.0 1012.1
21 15.07 З 1 8000 м дымка 8/8 300 м
[Cu Sc Ci sp]
+18.1 +17.1 94 +19 +19 тепло 1020.7 1012.8
22 15.07 З 1 6000 м н/о +17.7 +16.9 95 +19 +19 тепло 1020.9 1013.0
23 15.07 З 2 7000 м н/о +17.6 +17.0 96 +18 +18 тепло 1021.1 1013.2
00 16.07 З 2 12 км 6/6 300 м
[St]
+17.6 +17.0 96 +18 +18 тепло 1021.2 1013.3
01 16.07 З 2 10 км н/о +17.6 +16.8 95 +18 +18 тепло 1021.2 1013.3
02 16.07 З 2 12 км н/о +17.3 +16.5 95 +18 +18 тепло 1021.1 1013.1
03 16.07 З 2 15 км 4/4 600 м
[St]
+17.3 +16.3 94 +18 +18 тепло 1020.8 1012.8
04 16.07 З 2 17 км н/о +17.3 +16.3 94 +18 +18 тепло 1021.1 1013.1
05 16.07 ЮЗ 2 14 км н/о +17.2 +16.1 93 +17 +17 тепло 1021.3 1013.3
06 16.07 ЮЗ 2 12 км 5/4 300 м
[Cu Sc Cc]
+17.4 +16.1 92 +18 +18 тепло 1021.6 1013.6 +17.2
07 16.07 ЮЗ 4 16 км н/о +18.1 +16.1 88 +18 +18 по сезону 1021.7 1013.8
08 16.07 З 2 19 км н/о +19.1 +16.3 84 +21 +21 комфорт 1021.9 1014.0
09 16.07 З 3 20 км 10/10 600 м
[Cu Sc]
+19.5 +15.6 78 +22 +22 комфорт 1021.9 1014.0
10 16.07 З 3 20 км н/о +20.1 +15.7 76 +23 +23 комфорт 1022.3 1014.4
11 16.07 З 3 20 км н/о +21.2 +15.9 72 +25 +25 комфорт 1022.5 1014.6
12 16.07 З 5 25 км 4/3 600 м
[Cu Sc Ci sp]
+21.8 +15.6 68 +25 +32 комфорт 1022.5 1014.7
13 16.07 З 5 20 км н/о +22.1 +15.4 66 +26 +26 душно 1022.4 1014.6
14 16.07 З 7 20 км н/о +21.6 +16.3 72 +25 +25 комфорт 1022.2 1014.4
15 16.07 З 6 20 км н/о +22.1 +16.1 69 +26 +26 душно 1022.2 1014.4
16 16.07 З 5 20 км н/о +21.5 +16.0 71 +25 +25 комфорт 1022.3 1014.4
17 16.07 З 5 20 км н/о +19.9 +16.7 82 +22 +22 комфорт 1022.2 1014.3
18 16.07 С 3 20 км н/о +18.3 +16.5 89 +19 +19 по сезону 1022.6 1014.7 +22.4
19 16.07 С 2 6000 м слаб. морось н/о +17.7 +16.4 92 +18 +18 по сезону 1022.8 1014.8 0.0
20 16.07 С 1 17 км в посл. час морось н/о +17.7 +16.4 92 +19 +19 по сезону 1022.7 1014.7 0.0
21 16.07 С 1 20 км {морось} 9/9 200 м
[Cu Sc]
+17.6 +16.1 91 +19 +19 по сезону 1022.9 1014.9 0.0
22 16.07 З 1 17 км н/о +17.4 +16.1 92 +18 +18 тепло 1022.9 1014.9
23 16.07 СЗ 2 14 км н/о +17.1 +15.8 92 +18 +18 тепло 1022.8 1014.8
00 17.07 С 2 20 км {морось} 8/1 200 м
[Cu hum Ci fib]
+17.0 +15.7 92 +18 +18 по сезону 1022.6 1014.6
01 17.07 СВ 1 20 км н/о +16.8 +15.7 93 +18 +18 тепло 1022.0 1014.0
02 17.07 СВ 1 19 км н/о +16.7 +15.4 92 +18 +18 тепло 1021.7 1013.7
03 17.07 З 2 3000 м 8/8 100 м
[St]
+16.5 +15.5 94 +17 +17 по сезону 1021.5 1013.5
04 17.07 СВ 1 13 км н/о +16.4 +15.6 95 +18 +18 тепло 1021.3 1013.3
05 17.07 З 1 6000 м н/о +16.3 +15.8 97 +17 +17 тепло 1021.2 1013.2
06 17.07 СВ 1 2000 м дымка 9/9 200 м
[St]
+16.5 +15.9 96 +17 +17 по сезону 1021.2 1013.2 +16.3
07 17.07 С 2 15 км н/о +17.1 +16.1 94 +17 +17 по сезону 1021.1 1013.1
08 17.07 СВ 2 17 км н/о +17.9 +16.2 90 +19 +19 по сезону 1021.0 1013.1
09 17.07 С 3 20 км 6/6 300 м
[Cu Sc]
+18.8 +16.2 85 +20 +24 тепло 1021.0 1013.1
10 17.07 С 4 20 км н/о +19.6 +15.0 75 +22 +22 комфорт 1020.9 1013.0
11 17.07 С 4 20 км н/о +19.9 +14.9 73 +22 +22 комфорт 1020.7 1012.8
12 17.07 С 3 25 км 8/8 300 м
[Cu Sc]
+19.8 +14.8 73 +22 +25 комфорт 1020.3 1012.4
13 17.07 С 4 20 км н/о +20.2 +14.8 71 +23 +23 комфорт 1019.9 1012.0
14 17.07 С 5 20 км н/о +20.2 +15.2 73 +23 +23 комфорт 1019.5 1011.6
15 17.07 С 5 20 км н/о +20.1 +15.1 73 +22 +22 комфорт 1019.1 1011.2
16 17.07 С 6 20 км н/о +19.7 +14.9 74 +21 +21 комфорт 1018.5 1010.6
17 17.07 С 7 20 км н/о +18.9 +14.8 77 +19 +19 по сезону 1018.0 1010.1
18 17.07 С 6 20 км н/о +18.4 +14.9 80 +18 +18 по сезону 1017.6 1009.7 +20.8
19 17.07 С 7 20 км н/о +18.2 +14.7 80 +18 +18 по сезону 1017.5 1009.6
20 17.07 С 4 19 км н/о +17.7 +14.6 82 +18 +18 по сезону 1017.3 1009.4
21 17.07 С 4 18 км 5/3 300 м
[Sc Ac trans]
+17.5 +14.8 84 +17 +17 по сезону 1017.5 1009.6
22 17.07 СВ 2 14 км н/о +17.4 +15.0 86 +18 +18 тепло 1017.3 1009.4
23 17.07 С 3 14 км н/о +17.3 +15.5 89 +17 +17 по сезону 1016.9 1009.0
00 18.07 С 2 12 км 3/3 300 м
[Sc Ci fib]
+17.0 +15.7 92 +18 +18 по сезону 1016.4 1008.5
01 18.07 С 2 14 км н/о +17.2 +16.1 93 +18 +18 тепло 1016.2 1008.3
02 18.07 С 1 14 км н/о +17.2 +16.1 93 +18 +18 тепло 1015.7 1007.8
03 18.07 С 1 12 км 8/6 300 м
[Cu Sc Ac trans]
+17.2 +16.1 93 +18 +18 тепло 1015.1 1007.2
04 18.07 С 2 10 км н/о +17.5 +16.4 93 +18 +18 тепло 1014.8 1006.9
05 18.07 С 2 14 км н/о +17.3 +16.2 93 +18 +18 тепло 1015.0 1007.1
06 18.07 СЗ 2 12 км 9/8 300 м
[Sc Ac trans]
+17.5 +16.5 94 +18 +18 тепло 1014.9 1007.0 +16.8
07 18.07 В 1 14 км н/о +18.3 +17.0 92 +20 +20 тепло 1014.8 1006.9
08 18.07 В 1 14 км н/о +19.5 +17.3 87 +23 +23 комфорт 1014.8 1007.0
09 18.07 С 2 12 км 10/9 300 м
[Sc Ac trans]
+21.2 +17.8 81 +25 +26 комфорт 1015.2 1007.4
10 18.07 С 2 15 км н/о +19.8 +17.9 89 +23 +23 комфорт 1015.4 1007.6
11 18.07 С 2 20 км н/о +21.2 +18.0 82 +25 +25 комфорт 1015.3 1007.5
12 18.07 С 3 20 км 6/3 300 м
[Cu Sc Ac cuf Ci]
+22.8 +18.6 77 +29 +37 очень
душно
1015.3 1007.5
13 18.07 С 4 20 км н/о +21.8 +18.0 79 +26 +26 душно 1015.3 1007.5
14 18.07 С 4 19 км н/о +21.5 +17.7 79 +26 +26 душно 1015.4 1007.6
15 18.07 С 5 19 км н/о +21.5 +17.9 80 +26 +26 душно 1015.6 1007.8
16 18.07 С 4 18 км н/о +21.4 +18.0 81 +26 +26 душно 1015.7 1007.9
17 18.07 СВ 2 16 км н/о +21.3 +18.1 82 +26 +26 душно 1015.4 1007.6
18 18.07 С 3 18 км н/о +22.5 +18.3 77 +28 +28 душно 1015.7 1007.9 +22.9
19 18.07 З 2 16 км н/о +20.8 +17.8 83 +25 +25 комфорт 1016.1 1008.3
20 18.07 З 2 18 км н/о +20.8 +18.0 84 +26 +26 душно 1016.3 1008.5
21 18.07 З 2 20 км 9/1 1000 м
[Sc Ac lent Cc]
+19.9 +17.7 87 +23 +23 комфорт 1016.7 1008.9
22 18.07 З 2 12 км н/о +19.2 +17.5 90 +22 +22 комфорт 1017.1 1009.2
23 18.07 З 2 16 км н/о +19.2 +17.5 90 +22 +22 комфорт 1017.0 1009.1
00 19.07 СЗ 1 20 км 9/8 300 м
[Sc Ac lent]
+19.2 +17.3 89 +22 +22 комфорт 1017.0 1009.1
01 19.07 С 2 19 км н/о +19.2 +17.2 88 +22 +22 комфорт 1016.8 1008.9
02 19.07 С 2 18 км н/о +18.8 +16.9 89 +21 +21 комфорт 1016.7 1008.8
03 19.07 СВ 3 20 км 10/10 300 м
[St]
+19.1 +16.7 86 +21 +21 комфорт 1016.6 1008.7
04 19.07 СВ 3 18 км н/о +18.7 +16.3 86 +20 +20 тепло 1016.7 1008.8
05 19.07 С 3 12 км н/о +17.6 +16.3 92 +18 +18 тепло 1016.8 1008.9
06 19.07 С 3 18 км 10/9 300 м
[Sc Ac As]
+17.9 +16.4 91 +18 +18 тепло 1017.4 1009.5 +17.6
07 19.07 С 3 14 км н/о +18.2 +16.2 88 +19 +19 тепло 1017.7 1009.8
08 19.07 С 3 16 км н/о +18.4 +16.2 87 +19 +19 тепло 1018.1 1010.2

 

Местоположение метеостанции La Coruna (Испания): широта 43.37 долгота -8.42 высота над уровнем моря 67 м.

В архиве по умолчанию представлена погода в La Coruna за последнюю неделю. Архивные данные за месяц целиком и за предыдущие месяцы, начиная с января 2011 года, Вы можете получить, выбрав интересующий диапазон дат из раскрывающегося списка и нажав кнопку "Ввод!".


*Определитесь, кто Вы:
робот инопланетянин человек

Внимание! Время в таблицах - всемирное. Для получения местного времени необходимо прибавить поправку, которая в La Coruna равна 1 ч.

Смотрите также архив погоды в соседних городах и на ближайших метеорологических станциях:

Погода в Santiago (Испания) (52 км)
Погода в Lugo (Испания) (83 км)
Погода в Pontevedra (Испания) (106 км)
Погода в Orense (Испания) (124 км)
Погода в Vigo (Испания) (128 км)
Погода в Ponferrada (Испания) (177 км)
Погода в Aviles (Испания) (194 км)
Погода в Viana Do Castelo (Португалия) (196 км)
Погода в Oviedo (Испания) (206 км)
Погода в Gijon Musel (Испания) (221 км)

Пояснения к столбцам:

Ветер - указаны скорость ветра в м/с - средняя за 10 мин, порывы в срок и между сроками (в фигурных скобках) и направление, откуда дует ветер: С - северный, СВ - северо-восточный, В - восточный, ЮВ - юго-восточный, Ю - южный, ЮЗ - юго-западный, З - западный, СЗ - северо-западный.
Видимость - горизонтальная дальность видимости в метрах или километрах. При видимости от 1 до 10 км при отсутствии осадков обычно наблюдается дымка, при ухудшении видимости до 1 км и менее - туман. В сухую погоду видимость может ухудшаться дымом, пылью или мглою.
Явления - указаны атмосферные явления, наблюдавшиеся в срок или в последний час перед сроком; фигурными скобками обозначены явления, наблюдавшиеся между сроками (за 1-3 часа до срока); квадратными скобками обозначены град или гололедные отложения с указанием их диаметра в мм.
Облачность - указаны через наклонную черту общая и нижняя облачность в баллах и высота нижней границы облаков в метрах; квадратными скобками обозначены формы облаков: Ci - перистые, Cs - перисто-слоистые, Cc - перисто-кучевые, Ac - высококучевые, As - высокослоистые, Sc - слоисто-кучевые, Ns - слоисто-дождевые, Cu - кучевые, Cb - кучево-дождевые. Подробнее классификацию облаков см. в Атласе облаков (PDF).
T - Температура воздуха - температура, измеренная на высоте 2 м над землей.
Td - Температура точки росы - температура, при понижении до которой содержащийся в воздухе водяной пар достигнет насыщения.
f - Относительная влажность воздуха - влажноcть воздуха, измеренная на высоте 2 м над землей.
Te - Эффективная температура - температура, которую ощущает одетый по сезону человек в тени. Характеристика душности погоды. При расчете учитывается влияние влажности воздуха и скорости ветра на теплоощущения человека.
Tes - Эффективная температура на солнце - температура, которую ощущает человек, с поправкой на солнечный нагрев. Характеристика знойности погоды. Зависит от высоты солнца над горизонтом, облачности и скорости ветра. Ночью, в пасмурную погоду, а также при ветре 12 м/с и более поправка равна нулю.
P - Атмосферное давление - приведенное к уровню моря атмосферное давление.
Po - Атмосферное давление - измеренное на уровне метеостанции атмосферное давление.
Tmin - Минимальная температура - минимум температуры воздуха на высоте 2 м над землей.
Tmax - Максимальная температура - максимум температуры воздуха на высоте 2 м над землей.
R - Количество осадков - Количество выпавших осадков за период времени, мм. При наведении курсора мыши на число - период времени, за который выпало указанное количество осадков.
R24 - Количество осадков - Количество выпавших осадков за 24 часа, мм.
S - Снежный покров - Высота снежного покрова, см. При наведении курсора мыши на число - состояние снежного покрова и степень покрытия местности в баллах.